Flag for France Weather past 2 weeks in Taiohae, Marquesas Islands, France

Now
85 °F

Passing clouds.


Feels Like: 91 °F
Forecast: 81 / 83 °F
Wind: 9 mph from East

Location: Atuona


UV Index: 10 (Very high)

Visibility: 25 mi


Pressure: 29.78 "Hg

Humidity: 67%

Dew point: 72 °F

Location of TaiohaeLocation

Historic Weather in Taiohae

°F

Taiohae temperature yesterday

Maximum temperature yesterday: 87 °F (at 1:30 PM)
Minimum temperature yesterday: 75 °F (at 5:30 AM)
Average temperature yesterday: 79 °F

Past Weeks' High & Low Weather Summary

 TemperatureHumidityPressure
High92 °F (Apr 7, 12:30 PM)94% (Apr 8, 1:30 AM)29.93 "Hg (Apr 8, 1:30 AM)
Low73 °F (Apr 9, 5:30 AM)56% (Apr 6, 11:30 AM)29.74 "Hg (Apr 8, 2:30 PM)
Average81 °F77%29.84 "Hg
* Reported Apr 3 2:30 PM — Apr 18 2:30 PM, Taiohae, Weather by CustomWeather, © 2014

Note: Actual official high and low records may vary slightly from our data, if they occured in-between our weather recording intervals... More about our weather records

Advertising

Historic Weather Conditions — Data for Previous 24 hours

 ConditionsComfort  
Time TempWeatherWind HumidityBarometerVisibility
2:30 PM
Apr 18
87 °FPassing clouds.10 mph64%29.78 "Hg25 mi
1:30 PM88 °FPassing clouds.12 mph60%29.80 "Hg25 mi
12:30 PM90 °FScattered clouds.6 mph62%29.83 "Hg25 mi
10:30 AM89 °FPassing clouds.8 mph60%29.88 "Hg25 mi
9:30 AM90 °FScattered clouds.7 mph61%29.89 "Hg25 mi
8:30 AM86 °FScattered clouds.7 mph65%29.89 "Hg25 mi
7:30 AM81 °FScattered clouds.2 mph76%29.89 "Hg25 mi
6:30 AM76 °FScattered clouds.2 mph89%29.88 "Hg25 mi
5:30 AM75 °FScattered clouds.1 mph88%29.87 "Hg25 mi
4:30 AM76 °FMild.2 mph87%29.85 "HgN/A
3:30 AM76 °FMild.2 mph86%29.85 "HgN/A
2:30 AM76 °FMild.2 mph88%29.84 "HgN/A
1:30 AM76 °FMild.1 mph88%29.85 "HgN/A
12:30 AM76 °FMild.2 mph88%29.87 "HgN/A
11:30 PM
Apr 17
77 °FMild.2 mph88%29.88 "HgN/A
10:30 PM78 °FWarm.2 mph84%29.88 "HgN/A
9:30 PM79 °FWarm.1 mph81%29.88 "HgN/A
8:30 PM79 °FWarm.1 mph82%29.88 "HgN/A
7:30 PM80 °FWarm.2 mph77%29.85 "HgN/A
6:30 PM81 °FWarm.6 mph74%29.83 "HgN/A
5:30 PM81 °FWarm.9 mph73%29.81 "HgN/A
4:30 PM82 °FPassing clouds.9 mph71%29.80 "Hg25 mi
Weather by CustomWeather, © 2014

See weather overview